User: anonymous   Login
Location: Norwich
(52.6280°N, 1.3030°E)
Time: 14:46:49
(UTC+01:00)
Language:

Meteor 1-22 Rocket - Orbit

View from above orbital plane
View from above orbital plane
View from above satellite
View from above satellite

Ground track
Ground track

The orbit data is extracted from the following two-line orbital elements,

1  8294U 75087B   17173.54568246 -.00000001 +00000-0 -77837-5 0  9999
2  8294 081.2074 017.3523 0107769 027.3220 333.3560 14.08557143145353
Epoch (UTC): 22 June 2017 13:05:46
Eccentricity: 0.0107769
inclination: 81.2074°
perigee height: 786 km
apogee height: 942 km
right ascension of ascending node: 17.3523°
argument of perigee: 27.3220°
revolutions per day: 14.08557143
mean anomaly at epoch: 333.3560°
orbit number at epoch: 14535

The dashed part of the orbit path shows where the satellite is in the earth's shadow,  

DLR